Regional Weather Roundup
Issued by NWS

Home | Current Version | Previous Version | Graphics & Text | Print | Product List | Glossary On
Versions: 1 2 3 4 5 6 7 8 9 10 11 12 13 14 15 16 17 18 19 20 21 22 23 24 25 26 27 28 29 30 31 32 33 34 35 36 37 38 39 40 41 42 43 44 45 46 47 48 49 50
333
ASUS45 KBOI 250110
RWRID

IDAHO REGIONAL WEATHER ROUNDUP
NATIONAL WEATHER SERVICE BOISE ID
600 PM MST FRI FEB 24 2017

NOTE: "FAIR" INDICATES FEW OR NO CLOUDS BELOW 12000 FEET
WITH NO SIGNIFICANT WEATHER AND/OR OBSTRUCTIONS TO VISIBILITY

IDZ012-014-250200-
SOUTHWEST IDAHO


CITY           SKY/WX    TMP DP  RH WIND       PRES   REMARKS
BOISE          PTCLDY    34  13  41 W5        30.14R WCI  30
CALDWELL       CLOUDY    35  17  47 NW5       30.16R WCI  31
MOUNTAIN HOME  PTCLDY    34  14  44 NW7       30.14R WCI  28
$$

IDZ016-017-250200-
SOUTHCENTRAL IDAHO


CITY           SKY/WX    TMP DP  RH WIND       PRES   REMARKS
BURLEY         CLEAR     27  13  55 SW13      30.11R WCI  16
JEROME           N/A    N/A N/A N/A MISG      30.12R
TWIN FALLS     PTCLDY    22  12  65 SW8       30.12R WCI  12
$$

IDZ019>023-250200-
SOUTHEAST IDAHO


CITY           SKY/WX    TMP DP  RH WIND       PRES   REMARKS
IDAHO FALLS    CLOUDY    20  18  92 SW18      30.08R FOG     WCI   5
POCATELLO      CLOUDY    23  15  71 SW15      30.12R WCI  10
REXBURG        LGT SNOW  20  17  88 SW12      30.06R FOG     WCI   8
$$

IDZ006-010-011-018-031-032-250200-
CENTRAL IDAHO MOUNTAINS


CITY           SKY/WX    TMP DP  RH WIND       PRES   REMARKS
MCCALL         CLOUDY    23   9  55 S12       30.00R WCI  12
HAILEY         MOCLDY    21  18  86 SE12      30.02R WCI   9
STANLEY          N/A     20   8  60 SE3       29.94R
SALMON         CLOUDY    30  14  51 W5        29.99R WCI  25
CHALLIS        CLOUDY    27  15  61 E3        29.96R
$$

IDZ002-004-006-007-026-250200-
NORTHERN IDAHO


CITY           SKY/WX    TMP DP  RH WIND       PRES   REMARKS
LEWISTON       PTCLDY    38  19  46 E7        30.16S WCI  33
LOWELL           N/A     36  28  73 CALM      30.18R
COEUR D`ALENE  CLEAR     29  23  78 CALM      30.15S
MULLAN PASS    LGT SNOW  16  14  92 NW3       29.96S FOG
$$




USA.gov is the U.S. government's official web portal to all federal, state and local government web resources and services.